This is the latest recevied weather packets stored in our database for station/object WC4PEM-11. If no packets are shown the sender has not sent any weather packets the latest 1 day(s).
| Time | Temp. | Humidity | Pressure | Rain* | Wind** | Luminosity | Snow |
|---|---|---|---|---|---|---|---|
| 1777996384 | 28.33° C | 57% | 1016.5 hPa | 0 mm | 2.24 m/s, 134° | - | - |
| 1777996084 | 28.33° C | 56% | 1016.5 hPa | 0 mm | 2.24 m/s, 65° | - | - |
| 1777995784 | 28.33° C | 58% | 1016.5 hPa | 0 mm | 2.24 m/s, 78° | - | - |
| 1777995484 | 28.33° C | 59% | 1016.4 hPa | 0 mm | 1.79 m/s, 124° | - | - |
| 1777995184 | 27.78° C | 60% | 1016.4 hPa | 0 mm | 2.24 m/s, 102° | - | - |
| 1777994884 | 27.78° C | 60% | 1016.5 hPa | 0 mm | 2.68 m/s, 88° | - | - |
| 1777994584 | 27.78° C | 61% | 1016.5 hPa | 0 mm | 2.24 m/s, 96° | - | - |
| 1777994284 | 27.22° C | 62% | 1016.5 hPa | 0 mm | 2.68 m/s, 126° | - | - |
| 1777994260 | 26.67° C | 63% | 1016.6 hPa | 0 mm | 1.79 m/s, 59° | - | - |
| 1777993984 | 26.67° C | 64% | 1016.5 hPa | 0 mm | 2.24 m/s, 93° | - | - |
| 1777993684 | 26.67° C | 63% | 1016.6 hPa | 0 mm | 1.79 m/s, 59° | - | - |
| 1777993384 | 26.67° C | 64% | 1016.6 hPa | 0 mm | 1.79 m/s, 67° | - | - |
| 1777993084 | 26.67° C | 64% | 1016.6 hPa | 0 mm | 1.79 m/s, 80° | - | - |
| 1777992784 | 26.67° C | 63% | 1016.7 hPa | 0 mm | 1.79 m/s, 93° | - | - |
| 1777992484 | 26.67° C | 63% | 1016.7 hPa | 0 mm | 2.24 m/s, 111° | - | - |
| 1777992184 | 26.67° C | 63% | 1016.6 hPa | 0 mm | 2.68 m/s, 102° | - | - |
| 1777991884 | 26.67° C | 64% | 1016.4 hPa | 0 mm | 2.24 m/s, 124° | - | - |
| 1777991584 | 26.67° C | 65% | 1016.4 hPa | 0 mm | 2.24 m/s, 51° | - | - |
| 1777991284 | 26.11° C | 66% | 1016.3 hPa | 0 mm | 1.79 m/s, 124° | - | - |
| 1777990985 | 25.56° C | 68% | 1016.2 hPa | 0 mm | 2.24 m/s, 117° | - | - |
| 1777990684 | 25° C | 68% | 1016.2 hPa | 0 mm | 2.68 m/s, 131° | - | - |
| 1777990384 | 25° C | 68% | 1016.1 hPa | 0 mm | 2.68 m/s, 128° | - | - |
| 1777990084 | 25° C | 69% | 1016.1 hPa | 0 mm | 3.13 m/s, 108° | - | - |
| 1777989784 | 25° C | 70% | 1016.2 hPa | 0 mm | 2.68 m/s, 71° | - | - |
| 1777989485 | 25° C | 70% | 1016.1 hPa | 0 mm | 2.24 m/s, 105° | - | - |
* Rain latest hour (hover to see other rain measurements)
** Current wind speed in m/s (hover to see current wind gust speed)